CAPE
1576 1719 1850 1943 2053 2605 2501 2929 3076 3082 3107 3169 3223 3104 2701 2866 2965 2981 2960 2862 2440 2192 1778 1622 1651 1512 1134 684 255 94 186 309 155 127 267 171 13 57 22 112 44 0 0
1682 2032 2029 2043 2112 2213 2323 2721 3210 3067 3314 3280 2892 2694 2858 2837 2627 2715 2856 2535 2594 2449 2209 1663 1500 1079 1234 925 368 185 111 154 101 226 271 88 24 3 1 9 5 0 0
2092 1975 2137 2140 2144 2220 2417 2766 2992 3369 3529 3411 3289 2895 2520 2365 2485 2673 2791 2569 2324 2204 1755 1548 1585 1374 1411 954 749 467 195 22 100 144 118 6 0 0 0 0 0 0 0
1769 1878 2620 2597 2574 2588 2749 2985 3147 3422 3658 3704 3761 3717 3489 3435 3245 3002 2450 2403 1919 1390 1250 1054 996 986 963 882 890 943 619 462 345 300 313 156 48 0 0 0 1 0 0
1848 2499 2422 2269 2724 3096 3099 3250 3522 3773 3675 3678 3654 3463 3510 3407 2974 2772 2275 2164 2005 1678 1353 990 747 563 111 169 360 445 347 114 66 141 134 189 93 0 0 0 0 3 0
1471 1847 2031 2601 3059 3309 3538 3763 3776 3574 3357 3562 3401 3665 3730 3118 1716 503 964 2123 1822 1243 1102 1016 810 159 119 0 0 0 0 64 332 410 122 301 398 5 0 0 0 0 0
1912 1998 2576 3086 3345 3482 3680 3696 3618 3596 3650 3424 3845 3694 3408 3131 916 482 0 1333 1669 1167 503 778 504 49 0 5 0 0 0 0 0 179 289 272 400 382 0 0 0 0 0
2739 2711 3156 3428 3537 3684 3707 3434 3158 3400 3743 3809 3530 3090 2369 480 1 1 0 995 1007 346 348 427 390 586 457 139 94 83 0 0 11 1 19 34 226 299 27 0 0 0 0
2674 2893 3364 3482 3418 3237 3203 3009 3167 3550 3660 3091 2270 2196 1294 331 0 0 67 533 759 768 817 372 128 96 120 0 1 6 27 337 89 0 0 0 0 0 28 52 2 1 2
2788 3048 3317 3300 3296 3129 3206 3595 3721 3623 2581 2199 1638 744 68 104 1 0 142 502 509 252 308 317 1 0 1 1 5 96 57 53 136 74 8 0 0 14 0 73 65 0 0
2499 3084 3200 3161 3239 3285 3610 3560 3042 2218 2266 1673 839 259 2 3 1 0 1 101 0 0 0 0 0 0 0 0 1 8 306 45 17 35 178 11 0 149 327 286 242 44 318
2539 3074 3099 3014 2624 3205 3439 2825 2308 2182 1932 1214 505 5 0 0 0 0 0 0 0 0 0 0 0 0 0 0 0 1 0 1 4 19 276 541 447 137 2 102 421 575 601
2585 2916 2820 3082 3090 3006 2530 2069 1864 2081 1569 1118 368 0 0 0 0 0 0 0 0 0 0 0 0 0 0 2 0 0 0 57 62 35 65 303 448 396 367 0 1 271 333
2985 2709 2937 2821 2150 1776 1546 1649 1659 1572 1173 984 169 0 0 0 0 0 0 0 0 0 0 0 0 0 0 0 0 0 10 13 20 20 42 88 216 160 248 70 3 0 0
2427 2368 2540 1387 834 10 0 72 282 0 355 341 17 0 0 0 0 0 0 0 0 0 0 0 0 3 6 7 6 10 13 13 8 10 11 9 38 56 213 148 151 88 6
2178 2268 1443 467 149 0 0 0 0 0 0 0 0 0 0 0 0 0 0 0 0 0 0 0 2 3 3 8 8 7 11 9 11 13 16 23 23 13 77 175 128 56 41
905 55 0 4 0 0 1 0 0 0 0 0 0 0 0 0 1 0 0 0 0 0 0 2 3 5 7 10 7 9 11 8 15 12 10 8 9 7 5 9 72 84 86
152 84 85 5 14 7 0 0 1 2 0 0 0 0 0 0 0 0 0 0 0 0 0 2 3 5 6 8 7 7 7 8 8 14 16 11 11 4 10 7 5 4 32
567 265 90 55 29 2 0 0 0 0 0 0 0 0 0 0 0 0 0 0 0 0 0 3 5 7 7 8 13 10 12 11 11 17 10 9 8 8 7 10 9 0 2
544 51 13 0 0 0 0 0 0 0 0 0 0 0 0 0 0 0 0 0 0 0 0 3 7 12 9 8 7 8 8 8 8 8 6 6 6 7 8 8 8 7 7
200 0 0 0 0 0 0 0 0 0 0 0 0 0 0 0 0 0 0 0 0 0 0 0 2 12 12 11 10 8 8 10 8 5 2 1 1 4 5 7 8 8 10
0 0 0 0 0 0 0 0 0 0 0 0 0 0 0 0 0 0 0 0 0 0 0 2 3 5 9 8 6 3 1 2 11 3 1 5 7 7 9 9 8 9 9
0 0 0 0 0 0 0 0 0 0 0 0 0 0 0 0 0 0 0 0 0 0 0 0 1 1 2 2 2 3 7 7 1 0 0 1 5 6 9 6 8 7 9
0 0 0 0 0 0 0 0 0 0 0 0 0 0 0 0 0 0 0 0 0 0 0 0 0 0 0 0 0 0 0 0 0 0 0 0 0 3 13 15 6 5 8
0 0 0 0 0 0 0 0 0 0 0 0 0 0 0 0 0 0 0 0 0 0 0 0 0 0 0 0 0 0 0 0 0 0 0 0 0 5 10 12 10 9 10
0 0 0 0 0 0 0 0 0 0 0 0 0 0 0 0 0 0 0 0 0 0 0 0 0 0 0 0 0 0 0 0 0 0 0 0 0 0 1 5 4 8 11
CIN
-183 -163 -137 -110 -96 -55 -37 -31 -30 -29 -37 -30 -29 -35 -47 -32 -26 -22 -16 -22 -31 -35 -43 -32 -24 -29 -22 -44 -59 -80 -68 -43 -18 -4 -38 -82 -144 -135 -101 -85 -101 -0 -0
-161 -204 -154 -140 -98 -55 -61 -34 -21 -28 -23 -26 -36 -50 -47 -49 -49 -26 -26 -29 -19 -21 -23 -40 -37 -31 -33 -27 -45 -52 -42 -29 -13 -4 -17 -128 -189 -218 -10 -87 -45 -0 -0
-132 -155 -185 -173 -118 -75 -53 -49 -29 -18 -17 -16 -29 -44 -57 -56 -39 -23 -28 -32 -21 -14 -19 -21 -7 -3 -1 -4 -9 -15 -35 -84 -35 -8 -12 -61 -0 -0 -0 -0 -0 -0 -0
-182 -187 -197 -179 -142 -106 -68 -44 -36 -20 -10 -10 -12 -16 -15 -19 -18 -20 -37 -22 -21 -44 -35 -31 -15 -6 -3 -0 -0 -0 -0 -0 -0 -8 -2 -8 -46 -0 -0 -0 -0 -0 -0
-263 -216 -239 -199 -142 -89 -62 -32 -16 -8 -5 -10 -9 -15 -15 -22 -20 -31 -39 -30 -16 -15 -18 -21 -24 -36 -174 -139 -14 -3 -5 -28 -28 -5 -8 -0 -19 -0 -0 -0 -0 -119 -0
-377 -306 -293 -210 -123 -66 -28 -11 -11 -22 -13 -8 -17 -6 -7 -17 -103 -286 -156 -33 -30 -40 -31 -21 -20 -147 -159 -0 -0 -0 -0 -42 -0 -0 -2 -0 -0 -1 -0 -0 -0 -0 -0
-339 -285 -237 -151 -89 -40 -12 -7 -18 -21 -10 -10 -4 -1 -4 -14 -230 -267 -0 -74 -29 -31 -61 -28 -47 -174 -0 -55 -0 -0 -0 -0 -0 -1 -0 -1 -0 -0 -0 -0 -0 -0 -0
-224 -264 -179 -109 -64 -16 -10 -28 -39 -18 -1 -0 -1 -10 -37 -213 -0 -0 -0 -85 -46 -104 -81 -48 -72 -34 -53 -55 -100 -83 -0 -0 -48 -0 -33 -33 -1 -0 -2 -0 -0 -0 -0
-276 -259 -151 -85 -73 -40 -39 -43 -29 -2 -0 -7 -47 -47 -105 -259 -0 -0 -213 -103 -45 -16 -1 -48 -146 -167 -136 -0 -0 -136 -83 -10 -0 -0 -0 -4 -0 -0 -2 -8 -0 -0 -0
-261 -246 -186 -135 -71 -50 -33 -10 -1 -0 -34 -40 -91 -184 -369 -278 -0 -0 -165 -76 -57 -91 -58 -50 -0 -0 -0 -0 -0 -57 -62 -52 -21 -32 -3 -0 -0 -2 -0 -10 -3 -0 -0
-284 -223 -178 -142 -60 -42 -13 -6 -27 -68 -51 -82 -160 -249 -49 -0 -0 -0 -0 -84 -0 -0 -0 -0 -0 -0 -0 -0 -0 -26 -7 -22 -8 -28 -4 -6 -0 -21 -0 -0 -0 -22 -0
-272 -202 -155 -105 -83 -39 -5 -21 -58 -60 -77 -122 -183 -55 -0 -0 -0 -0 -0 -0 -0 -0 -0 -0 -0 -0 -0 -0 -0 -0 -0 -0 -26 -5 -0 -0 -0 -9 -13 -7 -0 -0 -0
-180 -129 -114 -53 -18 -11 -16 -33 -57 -47 -65 -98 -146 -0 -0 -0 -0 -0 -0 -0 -0 -0 -0 -0 -0 -0 -0 -1 -0 -0 -0 -85 -67 -98 -40 -0 -0 -0 -0 -0 -2 -3 -5
-50 -64 -78 -58 -56 -44 -34 -32 -43 -46 -65 -78 -159 -0 -0 -0 -0 -0 -0 -0 -0 -0 -0 -0 -0 -0 -0 -0 -0 -0 -0 -0 -0 -0 -0 -36 -3 -1 -2 -11 -0 -0 -0
-82 -98 -118 -178 -217 -192 -0 -233 -282 -0 -68 -124 -158 -0 -0 -0 -0 -0 -0 -0 -0 -0 -0 -0 -0 -0 -0 -0 -0 -0 -0 -0 -0 -0 -0 -2 -0 -0 -7 -20 -16 -13 -4
-58 -21 -122 -359 -383 -0 -0 -0 -0 -0 -0 -0 -0 -0 -0 -0 -0 -0 -0 -0 -0 -0 -0 -0 -0 -0 -0 -0 -0 -0 -0 -0 -0 -0 -0 -2 -4 -1 -55 -22 -38 -102 -44
-64 -239 -0 -10 -0 -0 -0 -0 -0 -0 -0 -0 -0 -0 -0 -0 -0 -0 -0 -0 -0 -0 -0 -0 -0 -0 -0 -0 -0 -0 -0 -0 -0 -0 -0 -0 -0 -0 -0 -0 -2 -0 -66
-237 -517 -573 -601 -471 -472 -0 -0 -0 -0 -0 -0 -0 -0 -0 -0 -0 -0 -0 -0 -0 -0 -0 -0 -0 -0 -0 -0 -0 -0 -0 -0 -0 -0 -0 -0 -0 -0 -0 -0 -0 -0 -9
-180 -335 -510 -463 -377 -252 -0 -0 -0 -0 -0 -0 -0 -0 -0 -0 -0 -0 -0 -0 -0 -0 -0 -0 -0 -0 -0 -0 -0 -0 -0 -0 -0 -0 -0 -0 -0 -0 -0 -0 -0 -0 -0
-180 -318 -345 -15 -0 -0 -0 -0 -0 -0 -0 -0 -0 -0 -0 -0 -0 -0 -0 -0 -0 -0 -0 -0 -0 -0 -0 -0 -0 -0 -0 -0 -0 -0 -0 -0 -0 -0 -0 -0 -0 -0 -0
-254 -0 -0 -0 -0 -0 -0 -0 -0 -0 -0 -0 -0 -0 -0 -0 -0 -0 -0 -0 -0 -0 -0 -0 -0 -0 -0 -0 -2 -2 -0 -3 -0 -0 -0 -0 -0 -0 -0 -0 -0 -0 -0
-0 -0 -0 -0 -0 -0 -0 -0 -0 -0 -0 -0 -0 -0 -0 -0 -0 -0 -0 -0 -0 -0 -0 -0 -0 -0 -0 -0 -0 -0 -0 -0 -0 -0 -0 -0 -0 -0 -0 -0 -0 -0 -0
-0 -0 -0 -0 -0 -0 -0 -0 -0 -0 -0 -0 -0 -0 -0 -0 -0 -0 -0 -0 -0 -0 -0 -0 -0 -0 -0 -0 -0 -0 -0 -0 -0 -0 -0 -0 -0 -0 -0 -0 -0 -0 -0
-0 -0 -0 -0 -0 -0 -0 -0 -0 -0 -0 -0 -0 -0 -0 -0 -0 -0 -0 -0 -0 -0 -0 -0 -0 -0 -0 -0 -0 -0 -0 -0 -0 -0 -0 -0 -0 -0 -0 -0 -0 -0 -0
-0 -0 -0 -0 -0 -0 -0 -0 -0 -0 -0 -0 -0 -0 -0 -0 -0 -0 -0 -0 -0 -0 -0 -0 -0 -0 -0 -0 -0 -0 -0 -0 -0 -0 -0 -0 -0 -0 -0 -0 -0 -0 -0
-0 -0 -0 -0 -0 -0 -0 -0 -0 -0 -0 -0 -0 -0 -0 -0 -0 -0 -0 -0 -0 -0 -0 -0 -0 -0 -0 -0 -0 -0 -0 -0 -0 -0 -0 -0 -0 -0 -0 -0 -0 -0 -0
Wind_Speed
13 12 12 10 9 8 9 8 8 6 5 5 5 4 6 6 6 7 6 7 9 8 6 6 8 7 6 5 5 4 5 5 8 8 4 3 6 7 7 9 8 8 8
12 14 13 11 11 12 11 11 9 8 5 6 3 3 4 6 6 6 9 8 8 8 7 6 8 6 7 6 6 7 6 5 7 9 3 3 4 4 6 9 7 7 8
15 13 12 11 11 12 12 12 10 8 6 5 4 6 6 7 7 7 9 7 6 6 6 6 7 7 7 5 6 5 5 3 5 5 4 1 2 3 3 6 7 9 8
16 14 11 10 10 10 11 10 9 8 7 6 6 5 5 6 6 6 7 5 4 6 5 6 6 7 7 6 7 7 7 7 7 7 7 7 5 3 4 3 5 6 9
14 10 10 8 7 8 9 9 8 7 6 7 6 5 4 5 4 5 5 5 5 5 4 4 5 6 4 6 5 5 6 6 5 6 7 7 6 4 4 4 4 7 10
10 9 8 8 8 9 9 9 8 7 5 5 4 4 5 3 1 7 6 4 4 4 4 5 6 7 8 10 10 9 7 9 10 8 7 8 9 7 4 3 3 4 5
11 10 8 8 8 9 9 9 8 7 7 6 5 6 4 2 5 7 5 5 5 4 4 6 6 5 7 7 6 9 11 12 12 9 10 10 8 7 5 4 4 4 3
12 11 10 10 10 10 9 9 8 7 7 7 6 4 5 4 9 6 5 5 6 5 5 5 6 8 7 8 6 7 7 8 10 9 10 11 9 7 9 6 7 5 1
13 14 12 11 11 10 9 9 8 8 7 6 6 6 6 5 9 7 2 2 4 5 6 3 4 6 6 6 6 7 7 8 4 10 12 10 8 8 8 6 6 5 4
11 13 12 12 11 10 10 9 8 8 8 7 7 7 7 7 10 8 3 3 4 4 4 5 11 9 9 7 6 5 6 6 6 5 5 8 10 12 11 11 5 6 3
11 13 11 12 12 11 10 8 9 9 9 8 8 7 8 7 7 10 11 4 5 5 5 5 6 11 11 8 4 5 6 7 4 6 5 4 5 8 8 10 10 9 10
11 13 12 11 9 9 9 8 9 9 9 9 8 7 6 7 6 11 11 11 6 5 6 6 7 11 8 7 5 7 8 5 3 4 6 7 5 5 5 6 10 12 11
10 11 12 11 8 8 8 8 7 7 7 7 6 6 5 5 5 7 8 7 9 4 4 5 8 8 8 5 10 10 5 5 4 4 5 6 4 6 5 3 6 10 12
13 13 13 12 11 9 7 6 6 6 5 6 6 6 5 4 3 4 5 5 6 4 2 4 3 2 4 6 6 8 7 7 7 6 6 7 7 4 6 4 4 4 3
14 13 14 12 12 8 8 4 4 3 2 6 6 5 4 4 5 4 6 7 6 5 4 5 7 8 9 9 9 9 8 7 7 7 7 7 6 6 6 5 6 5 6
10 11 9 11 9 10 9 11 18 11 16 16 13 8 7 10 8 5 7 9 8 7 6 7 7 7 8 7 7 7 7 8 8 8 8 7 6 7 8 6 5 5 6
13 5 6 7 5 10 9 8 13 10 16 17 16 15 14 10 8 6 7 10 11 4 7 7 7 7 7 7 7 7 7 7 8 7 8 7 7 7 8 8 8 6 6
17 23 14 11 12 10 12 9 8 8 9 9 9 9 11 11 10 9 3 4 5 8 6 6 6 6 6 6 7 7 7 7 8 8 9 8 8 9 9 8 7 8 10
15 11 10 10 7 8 9 9 9 9 8 9 9 8 9 9 9 6 4 5 5 5 4 4 4 4 4 4 5 6 7 7 8 7 7 8 8 8 9 9 9 10 10
9 10 10 10 11 10 9 8 9 9 8 7 5 6 6 4 3 3 3 4 4 4 4 3 4 4 4 4 5 5 6 7 7 7 7 7 7 7 8 8 8 9 10
9 10 12 10 11 10 9 9 8 8 7 7 6 6 6 2 3 3 2 3 2 3 2 3 4 4 4 5 5 6 6 6 6 7 8 8 8 8 8 8 8 8 9
10 11 11 11 11 11 10 9 8 8 8 8 7 7 3 2 3 2 2 1 2 2 3 3 4 4 3 4 5 6 6 7 8 8 8 9 9 8 8 8 9 9 10
12 13 12 11 10 12 11 9 9 8 8 8 7 6 5 4 3 2 1 1 2 3 2 3 3 4 4 4 3 2 5 6 8 9 9 9 9 9 9 9 9 9 10
13 12 12 10 10 10 10 10 9 9 8 8 7 6 5 4 3 3 1 1 2 2 2 2 2 3 5 5 6 6 6 8 8 9 11 10 10 10 9 10 10 12 11
10 11 11 11 12 11 11 10 9 9 8 7 7 6 6 4 3 2 2 2 2 2 1 2 3 4 4 5 5 8 9 9 9 10 9 10 11 13 12 10 11 12 13
9 11 11 10 10 10 9 10 9 8 8 7 7 6 5 4 3 3 3 3 3 2 2 2 3 4 5 4 7 10 8 7 9 9 9 8 9 9 10 12 16 13 14
Wind_Direction
188 189 195 198 191 202 222 228 236 235 221 229 235 233 214 218 210 213 229 243 243 246 243 245 251 244 248 232 228 228 229 231 251 265 269 189 195 208 202 212 199 203 184
202 180 187 190 191 212 220 227 218 219 212 244 228 224 213 225 238 231 237 240 240 247 241 237 251 247 237 240 232 232 234 227 254 257 245 213 211 216 223 212 218 215 210
202 192 170 180 193 212 221 217 217 217 213 227 221 214 214 229 226 226 242 259 250 268 257 246 255 250 251 246 240 229 217 229 223 257 276 98 184 168 213 233 220 235 223
185 182 162 175 194 207 214 215 201 201 208 212 219 243 225 245 239 239 242 262 250 254 267 256 260 253 258 250 238 232 220 229 224 238 255 260 249 171 214 181 215 234 232
179 174 160 173 196 204 206 203 194 182 200 207 211 218 226 233 228 227 235 256 263 280 295 282 270 271 259 253 243 241 229 226 242 244 249 249 233 201 209 180 189 224 226
166 184 159 170 180 193 193 184 180 157 179 186 194 188 203 227 233 230 247 266 311 313 312 310 296 265 243 228 229 240 252 246 259 269 269 255 257 244 173 174 164 190 236
168 174 160 165 169 178 173 169 163 160 159 166 163 171 165 168 332 253 240 278 315 322 323 314 305 302 296 290 258 246 240 238 252 267 261 263 270 258 190 178 179 181 200
165 143 149 159 159 160 163 158 159 155 160 154 153 138 131 65 7 352 335 299 317 317 303 300 300 300 298 296 291 293 279 258 244 242 243 257 266 275 212 209 189 191 200
152 140 151 155 145 157 157 158 150 150 150 145 139 137 116 59 13 23 48 33 18 2 4 357 342 317 345 270 266 274 284 283 238 238 252 274 278 262 266 211 206 188 206
145 132 138 142 154 157 152 150 146 149 145 144 125 101 73 68 31 48 51 32 37 18 37 40 82 31 358 316 256 255 267 286 289 293 254 256 244 239 212 230 220 201 198
135 131 138 146 157 149 153 157 154 154 134 124 118 100 86 74 56 36 19 54 16 8 5 3 7 358 337 338 302 284 290 347 306 286 283 270 263 266 233 220 225 224 237
140 136 139 154 148 147 159 161 156 147 138 134 126 116 101 93 58 60 57 55 14 13 10 357 351 345 340 0 0 335 311 306 289 285 290 293 292 265 280 272 241 242 250
136 140 138 134 133 143 158 158 148 144 148 154 150 146 138 124 105 98 78 60 51 45 21 10 342 358 8 27 18 6 322 351 330 315 309 300 294 270 283 272 282 259 252
147 152 139 129 134 143 156 160 160 163 165 161 154 156 142 120 70 36 35 34 44 39 19 50 356 344 41 1 17 21 11 8 4 348 328 323 321 302 292 244 258 233 243
160 159 140 136 138 122 92 67 105 54 293 169 150 129 140 121 81 49 23 44 28 39 335 30 28 24 23 20 10 8 14 10 5 354 350 347 332 312 307 300 281 268 248
144 158 152 139 150 134 125 96 51 56 69 66 59 90 83 84 130 130 77 62 43 3 59 38 37 27 23 16 9 7 7 5 360 350 349 342 341 342 327 304 272 255 267
123 150 126 114 157 143 141 138 124 73 68 70 71 66 66 111 128 116 95 86 44 48 59 41 29 21 16 12 6 5 4 9 1 7 1 351 340 337 334 341 327 287 267
162 187 167 151 162 171 148 155 137 148 141 113 69 92 85 81 75 66 50 191 78 62 56 48 36 24 17 11 7 4 1 6 2 2 1 356 352 348 340 337 333 333 329
164 174 142 137 159 140 137 145 146 145 139 130 136 122 98 87 87 76 14 66 67 70 62 66 39 26 19 7 3 358 352 358 351 355 353 348 347 346 346 344 333 329 320
147 136 144 150 144 149 148 150 143 148 149 136 131 114 124 176 121 91 76 71 77 65 49 39 29 27 12 2 0 358 354 354 353 351 346 342 337 332 329 329 332 333 332
155 153 139 147 153 151 153 160 149 146 137 120 118 94 60 131 111 81 53 73 73 80 46 11 7 16 10 2 356 355 349 343 347 340 336 335 332 330 327 318 316 316 313
152 151 163 157 154 157 158 151 147 133 128 126 114 114 105 128 116 110 90 358 2 6 2 0 341 341 339 336 337 334 332 332 330 332 327 322 321 321 324 322 319 313 313
154 157 155 156 155 133 143 141 134 135 131 129 133 138 166 155 145 122 107 329 350 352 340 307 303 316 342 321 303 317 327 326 321 325 319 318 314 315 315 310 312 311 312
146 147 141 139 147 147 141 139 134 133 141 146 154 152 165 167 148 149 183 303 321 348 345 326 324 332 334 336 335 341 352 355 324 315 320 309 307 307 307 306 303 305 301
139 143 141 141 154 148 143 142 141 145 152 160 162 167 172 170 146 183 180 201 226 234 208 321 342 349 358 358 4 354 7 338 317 319 302 303 299 302 297 304 302 303 302
153 149 139 147 146 148 149 147 148 154 160 167 176 171 175 171 170 197 218 226 243 264 339 2 355 343 343 342 15 345 310 300 311 304 303 296 303 303 301 304 304 298 300